Time,TemperatureF,DewpointF,PressureIn,WindDirection,WindDirectionDegrees,WindSpeedMPH,WindSpeedGustMPH,Humidity,HourlyPrecipIn,Conditions,Clouds,dailyrainin,SoftwareType,DateUTC
2014-03-05 00:12:00,24.0,14.0,30.18,East,90,9.0,9.0,64,0.00,,,0.00,,2014-03-05 06:12:00,
2014-03-05 00:22:00,24.0,14.0,30.18,East,90,9.0,9.0,64,0.00,,,0.00,,2014-03-05 06:22:00,
2014-03-05 00:42:00,24.0,14.0,30.20,ENE,70,10.0,10.0,64,0.00,,,0.00,,2014-03-05 06:42:00,
2014-03-05 00:52:00,24.0,14.0,30.20,ENE,70,10.0,10.0,64,0.00,,,0.00,,2014-03-05 06:52:00,
2014-03-05 01:11:00,24.0,14.0,30.20,ENE,70,10.0,10.0,64,0.00,,,0.00,,2014-03-05 07:11:00,
2014-03-05 01:22:00,24.0,14.0,30.20,ENE,70,10.0,10.0,64,0.00,,,0.00,,2014-03-05 07:22:00,
2014-03-05 01:42:00,24.0,14.0,30.20,ENE,70,14.0,14.0,64,0.00,,,0.00,,2014-03-05 07:42:00,
2014-03-05 01:52:00,24.0,14.0,30.20,ENE,70,14.0,14.0,64,0.00,,,0.00,,2014-03-05 07:52:00,
2014-03-05 02:11:00,24.0,14.0,30.20,ENE,70,14.0,14.0,64,0.00,,,0.00,,2014-03-05 08:11:00,
2014-03-05 02:22:00,24.0,14.0,30.20,ENE,70,14.0,14.0,64,0.00,,,0.00,,2014-03-05 08:22:00,
2014-03-05 02:42:00,24.0,14.0,30.21,ENE,70,10.0,14.0,64,0.00,,,0.00,,2014-03-05 08:42:00,
2014-03-05 02:52:00,24.0,14.0,30.21,ENE,70,10.0,14.0,64,0.00,,,0.00,,2014-03-05 08:52:00,
2014-03-05 03:11:00,24.0,14.0,30.21,ENE,70,10.0,10.0,64,0.00,,,0.00,,2014-03-05 09:11:00,
2014-03-05 03:22:00,24.0,14.0,30.21,ENE,70,10.0,10.0,64,0.00,,,0.00,,2014-03-05 09:22:00,
2014-03-05 03:44:00,24.0,14.0,30.21,ENE,70,14.0,14.0,64,0.00,,,0.00,,2014-03-05 09:44:00,
2014-03-05 03:53:00,24.0,14.0,30.21,ENE,70,14.0,14.0,64,0.00,,,0.00,,2014-03-05 09:53:00,
2014-03-05 04:13:00,24.0,14.0,30.21,ENE,70,14.0,14.0,64,0.00,,,0.00,,2014-03-05 10:13:00,
2014-03-05 04:23:00,24.0,14.0,30.21,ENE,70,14.0,14.0,64,0.00,,,0.00,,2014-03-05 10:23:00,
2014-03-05 04:43:00,24.0,13.0,30.23,East,80,12.0,12.0,61,0.00,,,0.00,,2014-03-05 10:43:00,
2014-03-05 04:53:00,24.0,13.0,30.23,East,80,12.0,12.0,61,0.00,,,0.00,,2014-03-05 10:53:00,
2014-03-05 05:12:00,24.0,13.0,30.23,East,80,12.0,12.0,61,0.00,,,0.00,,2014-03-05 11:12:00,
2014-03-05 05:22:00,24.0,13.0,30.23,East,80,12.0,12.0,61,0.00,,,0.00,,2014-03-05 11:22:00,
2014-03-05 05:42:00,23.0,14.0,30.24,ENE,70,10.0,10.0,67,0.00,,,0.00,,2014-03-05 11:42:00,
2014-03-05 05:53:00,23.0,14.0,30.24,ENE,70,10.0,10.0,67,0.00,,,0.00,,2014-03-05 11:53:00,
2014-03-05 06:12:00,23.0,14.0,30.24,ENE,70,10.0,10.0,67,0.00,,,0.00,,2014-03-05 12:12:00,
2014-03-05 06:22:00,23.0,14.0,30.24,ENE,70,10.0,10.0,67,0.00,,,0.00,,2014-03-05 12:22:00,
2014-03-05 06:42:00,23.0,12.0,30.26,ENE,70,12.0,12.0,62,0.00,,,0.00,,2014-03-05 12:42:00,
2014-03-05 06:52:00,23.0,12.0,30.26,ENE,70,12.0,12.0,62,0.00,,,0.00,,2014-03-05 12:52:00,
2014-03-05 07:11:00,23.0,12.0,30.26,ENE,70,12.0,12.0,62,0.00,,,0.00,,2014-03-05 13:11:00,
2014-03-05 07:22:00,23.0,12.0,30.26,ENE,70,12.0,12.0,62,0.00,,,0.00,,2014-03-05 13:22:00,
2014-03-05 07:42:00,23.0,12.0,30.29,ENE,70,14.0,14.0,62,0.00,,,0.00,,2014-03-05 13:42:00,
2014-03-05 07:52:00,23.0,12.0,30.29,ENE,70,14.0,14.0,62,0.00,,,0.00,,2014-03-05 13:52:00,
2014-03-05 08:11:00,23.0,12.0,30.29,ENE,70,14.0,14.0,62,0.00,,,0.00,,2014-03-05 14:11:00,
2014-03-05 08:22:00,23.0,12.0,30.29,ENE,70,14.0,14.0,62,0.00,,,0.00,,2014-03-05 14:22:00,
2014-03-05 08:42:00,23.0,12.0,30.31,ENE,60,16.0,26.0,62,0.00,,,0.00,,2014-03-05 14:42:00,
2014-03-05 08:52:00,23.0,12.0,30.31,ENE,60,16.0,26.0,62,0.00,,,0.00,,2014-03-05 14:52:00,
2014-03-05 09:11:00,23.0,12.0,30.31,ENE,60,16.0,26.0,62,0.00,,,0.00,,2014-03-05 15:11:00,
2014-03-05 09:22:00,23.0,12.0,30.31,ENE,60,16.0,26.0,62,0.00,,,0.00,,2014-03-05 15:22:00,
2014-03-05 09:43:00,24.0,12.0,30.33,East,80,17.0,30.0,59,0.00,,,0.00,,2014-03-05 15:43:00,
2014-03-05 09:53:00,24.0,12.0,30.33,East,80,17.0,30.0,59,0.00,,,0.00,,2014-03-05 15:53:00,
2014-03-05 10:13:00,24.0,12.0,30.33,East,80,17.0,30.0,59,0.00,,,0.00,,2014-03-05 16:13:00,
2014-03-05 10:23:00,24.0,12.0,30.33,East,80,17.0,30.0,59,0.00,,,0.00,,2014-03-05 16:23:00,
2014-03-05 10:43:00,26.0,14.0,30.33,East,80,16.0,30.0,59,0.00,,,0.00,,2014-03-05 16:43:00,
2014-03-05 10:54:00,26.0,14.0,30.33,East,80,16.0,30.0,59,0.00,,,0.00,,2014-03-05 16:54:00,
2014-03-05 11:12:00,26.0,14.0,30.33,East,80,16.0,30.0,59,0.00,,,0.00,,2014-03-05 17:12:00,
2014-03-05 11:22:00,26.0,14.0,30.33,East,80,16.0,30.0,59,0.00,,,0.00,,2014-03-05 17:22:00,
2014-03-05 11:42:00,27.0,17.0,30.34,East,80,15.0,26.0,65,0.00,,,0.00,,2014-03-05 17:42:00,
2014-03-05 11:53:00,27.0,17.0,30.34,East,80,15.0,26.0,65,0.00,,,0.00,,2014-03-05 17:53:00,
2014-03-05 12:12:00,27.0,17.0,30.34,East,80,15.0,26.0,65,0.00,,,0.00,,2014-03-05 18:12:00,
2014-03-05 12:22:00,27.0,17.0,30.34,East,80,15.0,26.0,65,0.00,,,0.00,,2014-03-05 18:22:00,
2014-03-05 12:43:00,28.0,18.0,30.34,ENE,60,17.0,17.0,65,0.00,,,0.00,,2014-03-05 18:43:00,
2014-03-05 12:53:00,28.0,18.0,30.34,ENE,60,17.0,17.0,65,0.00,,,0.00,,2014-03-05 18:53:00,
2014-03-05 13:11:00,28.0,18.0,30.34,ENE,60,17.0,17.0,65,0.00,,,0.00,,2014-03-05 19:11:00,
2014-03-05 13:22:00,28.0,18.0,30.34,ENE,60,17.0,17.0,65,0.00,,,0.00,,2014-03-05 19:22:00,
2014-03-05 13:42:00,27.0,18.0,30.33,East,100,15.0,15.0,68,0.00,,,0.00,,2014-03-05 19:42:00,
2014-03-05 13:52:00,27.0,18.0,30.33,East,100,15.0,15.0,68,0.00,,,0.00,,2014-03-05 19:52:00,
2014-03-05 14:11:00,27.0,19.0,30.33,East,80,14.0,15.0,71,0.00,,,0.00,,2014-03-05 20:11:00,
2014-03-05 14:22:00,27.0,19.0,30.33,East,80,14.0,15.0,71,0.00,,,0.00,,2014-03-05 20:22:00,
2014-03-05 14:42:00,26.0,20.0,30.34,ENE,70,16.0,16.0,77,0.00,,,0.00,,2014-03-05 20:42:00,
2014-03-05 14:52:00,26.0,20.0,30.34,ENE,70,16.0,16.0,77,0.00,,,0.00,,2014-03-05 20:52:00,
2014-03-05 15:11:00,26.0,20.0,30.34,ENE,60,12.0,14.0,77,0.00,,,0.00,,2014-03-05 21:11:00,
2014-03-05 15:22:00,26.0,20.0,30.34,ENE,60,12.0,14.0,77,0.00,,,0.00,,2014-03-05 21:22:00,
2014-03-05 15:43:00,26.0,19.0,30.34,NE,50,14.0,14.0,74,0.00,,,0.00,,2014-03-05 21:43:00,
2014-03-05 15:54:00,26.0,19.0,30.34,NE,50,14.0,14.0,74,0.00,,,0.00,,2014-03-05 21:54:00,
2014-03-05 16:13:00,25.0,19.0,30.34,ENE,60,16.0,16.0,77,0.00,,,0.00,,2014-03-05 22:13:00,
2014-03-05 16:23:00,25.0,19.0,30.34,ENE,60,16.0,16.0,77,0.00,,,0.00,,2014-03-05 22:23:00,
2014-03-05 16:43:00,24.0,18.0,30.35,ENE,60,16.0,16.0,77,0.00,,,0.00,,2014-03-05 22:43:00,
2014-03-05 16:53:00,24.0,18.0,30.35,ENE,60,16.0,16.0,77,0.00,,,0.00,,2014-03-05 22:53:00,
2014-03-05 17:12:00,23.0,18.0,30.35,ENE,70,15.0,15.0,80,0.00,,,0.00,,2014-03-05 23:12:00,
2014-03-05 17:22:00,23.0,18.0,30.35,ENE,70,15.0,15.0,80,0.00,,,0.00,,2014-03-05 23:22:00,
2014-03-05 17:42:00,23.0,18.0,30.35,ENE,60,16.0,16.0,80,0.00,,,0.00,,2014-03-05 23:42:00,
2014-03-05 17:53:00,23.0,18.0,30.35,ENE,60,16.0,16.0,80,0.00,,,0.00,,2014-03-05 23:53:00,
2014-03-05 18:12:00,23.0,18.0,30.35,ENE,60,16.0,16.0,80,0.00,,,0.00,,2014-03-06 00:12:00,
2014-03-05 18:22:00,23.0,18.0,30.35,ENE,60,16.0,16.0,80,0.00,,,0.00,,2014-03-06 00:22:00,
2014-03-05 18:42:00,23.0,17.0,30.36,ENE,70,15.0,29.0,77,0.00,,,0.00,,2014-03-06 00:42:00,
2014-03-05 18:52:00,23.0,17.0,30.36,ENE,70,15.0,29.0,77,0.00,,,0.00,,2014-03-06 00:52:00,
2014-03-05 19:11:00,23.0,17.0,30.36,ENE,70,15.0,29.0,77,0.00,,,0.00,,2014-03-06 01:11:00,
2014-03-05 19:22:00,23.0,17.0,30.36,ENE,70,15.0,29.0,77,0.00,,,0.00,,2014-03-06 01:22:00,
2014-03-05 19:42:00,23.0,17.0,30.37,East,80,16.0,29.0,77,0.00,,,0.00,,2014-03-06 01:42:00,
2014-03-05 19:52:00,23.0,17.0,30.37,East,80,16.0,29.0,77,0.00,,,0.00,,2014-03-06 01:52:00,
2014-03-05 20:11:00,23.0,17.0,30.37,East,80,16.0,26.0,77,0.00,,,0.00,,2014-03-06 02:11:00,
2014-03-05 20:22:00,23.0,17.0,30.37,East,80,16.0,26.0,77,0.00,,,0.00,,2014-03-06 02:22:00,
2014-03-05 20:52:00,23.0,17.0,30.38,ENE,70,15.0,28.0,77,0.00,,,0.00,,2014-03-06 02:52:00,
2014-03-05 21:11:00,23.0,17.0,30.39,ENE,70,14.0,28.0,77,0.00,,,0.00,,2014-03-06 03:11:00,
2014-03-05 21:22:00,23.0,17.0,30.39,ENE,70,14.0,28.0,77,0.00,,,0.00,,2014-03-06 03:22:00,
2014-03-05 21:43:00,23.0,17.0,30.39,ENE,70,16.0,16.0,77,0.00,,,0.00,,2014-03-06 03:43:00,
2014-03-05 21:53:00,23.0,17.0,30.39,ENE,70,16.0,16.0,77,0.00,,,0.00,,2014-03-06 03:53:00,
2014-03-05 22:13:00,23.0,17.0,30.39,ENE,70,14.0,17.0,77,0.00,,,0.00,,2014-03-06 04:13:00,
2014-03-05 22:23:00,23.0,17.0,30.39,ENE,70,14.0,17.0,77,0.00,,,0.00,,2014-03-06 04:23:00,
2014-03-05 22:43:00,23.0,17.0,30.39,ENE,70,12.0,12.0,77,0.00,,,0.00,,2014-03-06 04:43:00,
2014-03-05 22:53:00,23.0,17.0,30.39,ENE,70,12.0,12.0,77,0.00,,,0.00,,2014-03-06 04:53:00,
2014-03-05 23:12:00,23.0,17.0,30.39,ENE,70,12.0,12.0,77,0.00,,,0.00,,2014-03-06 05:12:00,
2014-03-05 23:23:00,23.0,17.0,30.39,ENE,70,12.0,12.0,77,0.00,,,0.00,,2014-03-06 05:23:00,
2014-03-05 23:43:00,22.0,16.0,30.38,East,80,12.0,12.0,77,0.00,,,0.00,,2014-03-06 05:43:00,
2014-03-05 23:53:00,22.0,16.0,30.38,East,80,12.0,12.0,77,0.00,,,0.00,,2014-03-06 05:53:00,